Wetterdaten: Sonntag, 27.05.2012
Datum Zeit Temperatur Luftfeuchte Regen Wind Richtung Richtung Taupunkt Windchill Windben
27.05.2012 00:00 5,8 C 75 % 0,0 l/m 0,0 km/h (0 Bft) O-SO 112 1,7 C 5,2 C 0,0 km/h (0 Bft)
27.05.2012 00:05 5,8 C 75 % 0,0 l/m 0,0 km/h (0 Bft) S 180 1,7 C 5,2 C 0,0 km/h (0 Bft)
27.05.2012 00:10 5,9 C 75 % 0,0 l/m 0,2 km/h (0 Bft) NO 45 1,8 C 5,2 C 0,0 km/h (0 Bft)
27.05.2012 00:15 5,8 C 76 % 0,0 l/m 0,0 km/h (0 Bft) N-NW 337 1,9 C 5,2 C 0,0 km/h (0 Bft)
27.05.2012 00:20 5,9 C 76 % 0,0 l/m 0,0 km/h (0 Bft) N-NO 22 2,0 C 5,1 C 0,0 km/h (0 Bft)
27.05.2012 00:25 5,6 C 76 % 0,0 l/m 0,0 km/h (0 Bft) NO 45 1,7 C 4,9 C 0,0 km/h (0 Bft)
27.05.2012 00:30 5,1 C 76 % 0,0 l/m 0,0 km/h (0 Bft) SO 135 1,2 C 4,4 C 0,0 km/h (0 Bft)
27.05.2012 00:35 5,0 C 76 % 0,0 l/m 0,0 km/h (0 Bft) SO 135 1,1 C 4,3 C 0,0 km/h (0 Bft)
27.05.2012 00:40 4,8 C 77 % 0,0 l/m 0,0 km/h (0 Bft) S-SO 157 1,1 C 4,1 C 0,0 km/h (0 Bft)
27.05.2012 00:46 4,9 C 78 % 0,0 l/m 0,0 km/h (0 Bft) N-NO 22 1,4 C 3,9 C 0,0 km/h (0 Bft)
27.05.2012 00:50 5,1 C 78 % 0,0 l/m 0,0 km/h (0 Bft) NO 45 1,6 C 3,8 C 0,0 km/h (0 Bft)
27.05.2012 00:55 5,0 C 78 % 0,0 l/m 0,0 km/h (0 Bft) W-SW 247 1,5 C 3,9 C 0,0 km/h (0 Bft)
27.05.2012 01:00 4,5 C 79 % 0,0 l/m 0,0 km/h (0 Bft) S-SW 202 1,2 C 3,7 C 2,7 km/h (1 Bft)
27.05.2012 01:05 4,4 C 79 % 0,0 l/m 0,2 km/h (0 Bft) S-SO 157 1,1 C 3,7 C 0,0 km/h (0 Bft)
27.05.2012 01:10 4,3 C 79 % 0,0 l/m 0,2 km/h (0 Bft) O-SO 112 1,0 C 3,6 C 0,0 km/h (0 Bft)
27.05.2012 01:15 4,3 C 80 % 0,0 l/m 0,0 km/h (0 Bft) S 180 1,2 C 3,6 C 0,0 km/h (0 Bft)
27.05.2012 01:20 4,3 C 80 % 0,0 l/m 0,0 km/h (0 Bft) W-SW 247 1,2 C 3,6 C 0,0 km/h (0 Bft)
27.05.2012 01:25 4,4 C 81 % 0,0 l/m 0,0 km/h (0 Bft) N-NO 22 1,4 C 3,5 C 1,8 km/h (1 Bft)
27.05.2012 01:30 4,9 C 81 % 0,0 l/m 0,2 km/h (0 Bft) S-SW 202 1,9 C 3,7 C 0,0 km/h (0 Bft)
27.05.2012 01:35 4,7 C 80 % 0,0 l/m 0,3 km/h (0 Bft) O-NO 67 1,6 C 3,8 C 2,6 km/h (1 Bft)
27.05.2012 01:40 4,7 C 80 % 0,0 l/m 0,2 km/h (0 Bft) SO 135 1,6 C 3,9 C 0,0 km/h (0 Bft)
27.05.2012 01:45 4,4 C 80 % 0,0 l/m 0,2 km/h (0 Bft) SO 135 1,3 C 3,7 C 0,0 km/h (0 Bft)
27.05.2012 01:50 4,3 C 80 % 0,0 l/m 0,0 km/h (0 Bft) N 360 1,2 C 3,6 C 0,0 km/h (0 Bft)
27.05.2012 01:55 4,0 C 80 % 0,0 l/m 0,0 km/h (0 Bft) N 360 0,9 C 3,5 C 0,0 km/h (0 Bft)
27.05.2012 02:00 3,9 C 81 % 0,0 l/m 0,0 km/h (0 Bft) O-SO 112 0,9 C 3,2 C 0,0 km/h (0 Bft)
27.05.2012 02:05 3,8 C 81 % 0,0 l/m 0,0 km/h (0 Bft) S 180 0,8 C 3,1 C 0,0 km/h (0 Bft)
27.05.2012 02:10 3,8 C 81 % 0,0 l/m 0,0 km/h (0 Bft) W-SW 247 0,8 C 3,1 C 0,0 km/h (0 Bft)
27.05.2012 02:15 3,6 C 81 % 0,0 l/m 0,0 km/h (0 Bft) S 180 0,7 C 3,0 C 0,0 km/h (0 Bft)
27.05.2012 02:20 3,5 C 82 % 0,0 l/m 0,0 km/h (0 Bft) S-SW 202 0,7 C 2,6 C 0,0 km/h (0 Bft)
27.05.2012 02:25 3,6 C 83 % 0,0 l/m 0,0 km/h (0 Bft) N 360 1,0 C 2,5 C 0,0 km/h (0 Bft)
27.05.2012 02:30 4,2 C 83 % 0,0 l/m 0,5 km/h (0 Bft) N 360 1,6 C 2,6 C 0,0 km/h (0 Bft)
27.05.2012 02:35 4,0 C 82 % 0,0 l/m 0,5 km/h (0 Bft) S-SW 202 1,2 C 2,8 C 0,0 km/h (0 Bft)
27.05.2012 02:40 3,7 C 82 % 0,0 l/m 0,0 km/h (0 Bft) O-NO 67 0,9 C 2,8 C 0,0 km/h (0 Bft)
27.05.2012 02:45 3,8 C 83 % 0,0 l/m 0,0 km/h (0 Bft) O-SO 112 1,2 C 2,7 C 0,0 km/h (0 Bft)
27.05.2012 02:50 3,7 C 83 % 0,0 l/m 0,0 km/h (0 Bft) SO 135 1,1 C 2,7 C 0,0 km/h (0 Bft)
27.05.2012 02:55 3,6 C 83 % 0,0 l/m 0,0 km/h (0 Bft) N-NW 337 1,0 C 2,7 C 0,0 km/h (0 Bft)
27.05.2012 03:00 3,5 C 83 % 0,0 l/m 0,0 km/h (0 Bft) NO 45 0,9 C 2,6 C 0,0 km/h (0 Bft)
27.05.2012 03:05 3,3 C 84 % 0,0 l/m 0,0 km/h (0 Bft) W-NW 292 0,9 C 2,5 C 0,0 km/h (0 Bft)
27.05.2012 03:10 3,2 C 84 % 0,0 l/m 0,0 km/h (0 Bft) W-NW 292 0,8 C 2,4 C 0,0 km/h (0 Bft)
27.05.2012 03:15 3,3 C 85 % 0,0 l/m 0,0 km/h (0 Bft) N-NO 22 1,0 C 2,5 C 0,0 km/h (0 Bft)
27.05.2012 03:20 3,0 C 84 % 0,0 l/m 0,0 km/h (0 Bft) SO 135 0,6 C 2,4 C 0,0 km/h (0 Bft)
27.05.2012 03:25 3,2 C 85 % 0,0 l/m 0,0 km/h (0 Bft) O-SO 112 0,9 C 2,4 C 0,0 km/h (0 Bft)
27.05.2012 03:30 3,1 C 85 % 0,0 l/m 0,0 km/h (0 Bft) W-SW 247 0,8 C 2,2 C 0,0 km/h (0 Bft)
27.05.2012 03:35 3,0 C 85 % 0,0 l/m 0,0 km/h (0 Bft) W-NW 292 0,7 C 2,2 C 0,0 km/h (0 Bft)
27.05.2012 03:40 3,0 C 85 % 0,0 l/m 0,0 km/h (0 Bft) NO 45 0,7 C 2,2 C 0,0 km/h (0 Bft)
27.05.2012 03:45 3,1 C 85 % 0,0 l/m 0,0 km/h (0 Bft) SO 135 0,8 C 2,0 C 0,0 km/h (0 Bft)
27.05.2012 03:50 3,1 C 85 % 0,0 l/m 0,0 km/h (0 Bft) SO 135 0,8 C 2,0 C 0,0 km/h (0 Bft)
27.05.2012 03:55 3,1 C 85 % 0,0 l/m 0,0 km/h (0 Bft) W-SW 247 0,8 C 2,0 C 0,0 km/h (0 Bft)
27.05.2012 04:00 2,8 C 85 % 0,0 l/m 0,0 km/h (0 Bft) O-NO 67 0,5 C 1,9 C 0,0 km/h (0 Bft)
27.05.2012 04:05 2,7 C 85 % 0,0 l/m 0,0 km/h (0 Bft) S 180 0,4 C 1,8 C 0,0 km/h (0 Bft)
27.05.2012 04:10 2,6 C 85 % 0,0 l/m 0,0 km/h (0 Bft) N-NO 22 0,3 C 1,7 C 0,0 km/h (0 Bft)
27.05.2012 04:15 2,6 C 86 % 0,0 l/m 0,0 km/h (0 Bft) W-NW 292 0,5 C 1,7 C 0,0 km/h (0 Bft)
27.05.2012 04:20 2,6 C 86 % 0,0 l/m 0,0 km/h (0 Bft) O 90 0,5 C 1,7 C 0,0 km/h (0 Bft)
27.05.2012 04:25 2,5 C 86 % 0,0 l/m 0,0 km/h (0 Bft) O 90 0,4 C 1,6 C 0,0 km/h (0 Bft)
27.05.2012 04:30 2,6 C 86 % 0,0 l/m 0,0 km/h (0 Bft) S 180 0,5 C 1,7 C 0,0 km/h (0 Bft)
27.05.2012 04:35 2,5 C 86 % 0,0 l/m 0,0 km/h (0 Bft) N-NO 22 0,4 C 1,7 C 0,0 km/h (0 Bft)
27.05.2012 04:40 2,7 C 86 % 0,0 l/m 0,0 km/h (0 Bft) N-NO 22 0,6 C 1,7 C 0,0 km/h (0 Bft)
27.05.2012 04:45 2,5 C 86 % 0,0 l/m 0,0 km/h (0 Bft) S-SW 202 0,4 C 1,8 C 0,0 km/h (0 Bft)
27.05.2012 04:50 2,6 C 86 % 0,0 l/m 0,0 km/h (0 Bft) O 90 0,5 C 1,7 C 0,0 km/h (0 Bft)
27.05.2012 04:55 2,5 C 86 % 0,0 l/m 0,0 km/h (0 Bft) W 270 0,4 C 1,5 C 0,0 km/h (0 Bft)
27.05.2012 05:00 2,6 C 86 % 0,0 l/m 0,0 km/h (0 Bft) NW 315 0,5 C 1,6 C 0,0 km/h (0 Bft)
27.05.2012 05:05 2,4 C 86 % 0,0 l/m 0,0 km/h (0 Bft) NO 45 0,3 C 1,6 C 0,0 km/h (0 Bft)
27.05.2012 05:10 2,3 C 86 % 0,0 l/m 0,0 km/h (0 Bft) W-SW 247 0,2 C 1,6 C 0,0 km/h (0 Bft)
27.05.2012 05:15 2,4 C 86 % 0,0 l/m 0,0 km/h (0 Bft) W-NW 292 0,3 C 1,6 C 0,0 km/h (0 Bft)
27.05.2012 05:20 2,5 C 86 % 0,0 l/m 0,0 km/h (0 Bft) S 180 0,4 C 1,5 C 0,0 km/h (0 Bft)
27.05.2012 05:25 2,3 C 85 % 0,0 l/m 0,0 km/h (0 Bft) S 180 0,0 C 1,5 C 0,0 km/h (0 Bft)
27.05.2012 05:31 2,2 C 85 % 0,0 l/m 0,0 km/h (0 Bft) NO 45 -0,1 C 1,3 C 0,0 km/h (0 Bft)
27.05.2012 05:35 2,3 C 86 % 0,0 l/m 0,0 km/h (0 Bft) N 360 0,2 C 1,3 C 0,0 km/h (0 Bft)
27.05.2012 05:40 2,6 C 87 % 0,0 l/m 0,3 km/h (0 Bft) W-NW 292 0,7 C 1,6 C 0,0 km/h (0 Bft)
27.05.2012 05:45 2,9 C 87 % 0,0 l/m 0,3 km/h (0 Bft) NO 45 1,0 C 1,7 C 0,0 km/h (0 Bft)
27.05.2012 05:50 2,8 C 86 % 0,0 l/m 0,2 km/h (0 Bft) SO 135 0,7 C 1,8 C 0,0 km/h (0 Bft)
27.05.2012 05:55 2,8 C 85 % 0,0 l/m 0,2 km/h (0 Bft) S 180 0,5 C 1,9 C 0,0 km/h (0 Bft)
27.05.2012 06:00 3,0 C 84 % 0,0 l/m 0,0 km/h (0 Bft) N 360 0,6 C 1,9 C 0,0 km/h (0 Bft)
27.05.2012 06:05 3,0 C 84 % 0,0 l/m 0,0 km/h (0 Bft) S-SW 202 0,6 C 2,0 C 0,0 km/h (0 Bft)
27.05.2012 06:10 3,0 C 83 % 0,0 l/m 0,2 km/h (0 Bft) N-NW 337 0,4 C 2,3 C 0,0 km/h (0 Bft)
27.05.2012 06:15 3,4 C 83 % 0,0 l/m 0,2 km/h (0 Bft) W-NW 292 0,8 C 2,4 C 0,0 km/h (0 Bft)
27.05.2012 06:20 3,8 C 82 % 0,0 l/m 0,2 km/h (0 Bft) S-SO 157 1,0 C 2,7 C 1,6 km/h (1 Bft)
27.05.2012 06:25 4,2 C 81 % 0,0 l/m 0,2 km/h (0 Bft) N-NW 337 1,2 C 3,2 C 0,0 km/h (0 Bft)
27.05.2012 06:30 4,4 C 80 % 0,0 l/m 0,0 km/h (0 Bft) S 180 1,3 C 3,6 C 0,0 km/h (0 Bft)
27.05.2012 06:35 4,5 C 80 % 0,0 l/m 0,0 km/h (0 Bft) NO 45 1,4 C 3,9 C 0,0 km/h (0 Bft)
27.05.2012 06:40 4,8 C 79 % 0,0 l/m 0,0 km/h (0 Bft) O-SO 112 1,5 C 4,2 C 0,0 km/h (0 Bft)
27.05.2012 06:45 4,8 C 80 % 0,0 l/m 0,0 km/h (0 Bft) O-SO 112 1,6 C 4,4 C 0,0 km/h (0 Bft)
27.05.2012 06:50 4,8 C 79 % 0,0 l/m 0,0 km/h (0 Bft) SW 225 1,5 C 4,6 C 0,0 km/h (0 Bft)
27.05.2012 06:55 5,0 C 79 % 0,0 l/m 0,0 km/h (0 Bft) SW 225 1,7 C 4,7 C 0,0 km/h (0 Bft)
27.05.2012 07:00 5,1 C 79 % 0,0 l/m 0,0 km/h (0 Bft) W 270 1,8 C 5,0 C 0,0 km/h (0 Bft)
27.05.2012 07:05 5,3 C 79 % 0,0 l/m 0,0 km/h (0 Bft) N-NO 22 2,0 C 5,2 C 0,0 km/h (0 Bft)
27.05.2012 07:10 5,5 C 79 % 0,0 l/m 0,2 km/h (0 Bft) N 360 2,2 C 5,4 C 0,0 km/h (0 Bft)
27.05.2012 07:15 5,7 C 80 % 0,0 l/m 0,2 km/h (0 Bft) N-NW 337 2,5 C 5,5 C 0,0 km/h (0 Bft)
27.05.2012 07:20 6,1 C 78 % 0,0 l/m 0,0 km/h (0 Bft) N 360 2,6 C 5,9 C 0,0 km/h (0 Bft)
27.05.2012 07:25 6,5 C 78 % 0,0 l/m 0,0 km/h (0 Bft) N-NO 22 2,9 C 6,2 C 0,0 km/h (0 Bft)
27.05.2012 07:30 6,9 C 76 % 0,0 l/m 0,0 km/h (0 Bft) W-NW 292 3,0 C 6,8 C 0,0 km/h (0 Bft)
27.05.2012 07:35 7,2 C 75 % 0,0 l/m 0,0 km/h (0 Bft) NW 315 3,1 C 7,1 C 0,0 km/h (0 Bft)
27.05.2012 07:40 7,6 C 74 % 0,0 l/m 0,0 km/h (0 Bft) NW 315 3,3 C 7,8 C 0,0 km/h (0 Bft)
27.05.2012 07:45 7,8 C 74 % 0,0 l/m 0,0 km/h (0 Bft) N 360 3,5 C 8,2 C 0,0 km/h (0 Bft)
27.05.2012 07:50 8,2 C 73 % 0,0 l/m 0,0 km/h (0 Bft) N-NO 22 3,7 C 8,7 C 0,0 km/h (0 Bft)
27.05.2012 07:55 8,5 C 73 % 0,0 l/m 0,0 km/h (0 Bft) S 180 3,9 C 9,0 C 0,0 km/h (0 Bft)
27.05.2012 08:00 8,8 C 72 % 0,0 l/m 0,0 km/h (0 Bft) O-SO 112 4,0 C 9,5 C 0,0 km/h (0 Bft)
27.05.2012 08:05 8,9 C 72 % 0,0 l/m 0,0 km/h (0 Bft) S-SW 202 4,1 C 9,8 C 0,0 km/h (0 Bft)
27.05.2012 08:10 9,4 C 72 % 0,0 l/m 0,0 km/h (0 Bft) W-NW 292 4,6 C 10,3 C 0,0 km/h (0 Bft)
27.05.2012 08:15 10,1 C 71 % 0,0 l/m 0,0 km/h (0 Bft) S 180 5,1 C 10,7 C 0,0 km/h (0 Bft)
27.05.2012 08:20 10,7 C 71 % 0,0 l/m 0,0 km/h (0 Bft) O-NO 67 5,7 C 11,4 C 0,0 km/h (0 Bft)
27.05.2012 08:25 10,8 C 69 % 0,0 l/m 0,0 km/h (0 Bft) O-SO 112 5,3 C 11,9 C 0,0 km/h (0 Bft)
27.05.2012 08:30 11,5 C 68 % 0,0 l/m 0,0 km/h (0 Bft) S-SW 202 5,9 C 12,3 C 0,0 km/h (0 Bft)
27.05.2012 08:35 11,9 C 67 % 0,0 l/m 0,0 km/h (0 Bft) W-SW 247 6,5 C 13,2 C 0,0 km/h (0 Bft)
27.05.2012 08:40 12,5 C 61 % 0,0 l/m 0,5 km/h (0 Bft) N-NW 337 6,7 C 14,3 C 0,0 km/h (0 Bft)
27.05.2012 08:45 12,9 C 59 % 0,0 l/m 0,5 km/h (0 Bft) S-SO 157 6,9 C 15,4 C 0,0 km/h (0 Bft)
27.05.2012 08:50 13,5 C 57 % 0,0 l/m 0,0 km/h (0 Bft) W-SW 247 6,3 C 16,5 C 0,0 km/h (0 Bft)
27.05.2012 08:55 14,1 C 57 % 0,0 l/m 0,2 km/h (0 Bft) S-SO 157 7,4 C 17,1 C 0,0 km/h (0 Bft)
27.05.2012 09:00 14,8 C 52 % 0,0 l/m 0,3 km/h (0 Bft) S 180 7,9 C 19,0 C 0,0 km/h (0 Bft)
27.05.2012 09:05 15,2 C 51 % 0,0 l/m 0,3 km/h (0 Bft) W-SW 247 7,1 C 19,6 C 2,1 km/h (1 Bft)
27.05.2012 09:10 15,9 C 48 % 0,0 l/m 1,1 km/h (1 Bft) O-SO 112 7,4 C 20,0 C 3,7 km/h (1 Bft)
27.05.2012 09:15 16,3 C 44 % 0,0 l/m 1,1 km/h (1 Bft) W-SW 247 6,8 C 21,0 C 2,3 km/h (1 Bft)
27.05.2012 09:20 16,9 C 42 % 0,0 l/m 1,1 km/h (1 Bft) S-SW 202 7,0 C 22,1 C 3,9 km/h (1 Bft)
27.05.2012 09:25 17,2 C 41 % 0,0 l/m 2,3 km/h (1 Bft) S-SW 202 6,3 C 22,4 C 4,0 km/h (1 Bft)
27.05.2012 09:30 17,7 C 40 % 0,0 l/m 2,6 km/h (1 Bft) W-NW 292 5,9 C 21,8 C 5,0 km/h (1 Bft)
27.05.2012 09:35 17,3 C 40 % 0,0 l/m 2,9 km/h (1 Bft) SW 225 4,8 C 21,5 C 3,7 km/h (1 Bft)
27.05.2012 09:40 17,6 C 44 % 0,0 l/m 2,4 km/h (1 Bft) S-SW 202 6,9 C 21,1 C 2,4 km/h (1 Bft)
27.05.2012 09:45 17,7 C 43 % 0,0 l/m 2,6 km/h (1 Bft) W 270 6,0 C 20,8 C 3,4 km/h (1 Bft)
27.05.2012 09:50 17,7 C 41 % 0,0 l/m 3,2 km/h (1 Bft) S-SW 202 4,8 C 19,9 C 5,8 km/h (2 Bft)
27.05.2012 09:55 17,7 C 44 % 0,0 l/m 2,7 km/h (1 Bft) S 180 5,9 C 19,7 C 4,8 km/h (1 Bft)
27.05.2012 10:00 18,3 C 41 % 0,0 l/m 3,1 km/h (1 Bft) W 270 5,8 C 20,0 C 6,1 km/h (2 Bft)
27.05.2012 10:05 18,5 C 39 % 0,0 l/m 3,4 km/h (1 Bft) W-SW 247 5,4 C 20,6 C 6,6 km/h (2 Bft)
27.05.2012 10:10 18,6 C 40 % 0,0 l/m 3,4 km/h (1 Bft) NO 45 5,5 C 20,5 C 8,5 km/h (2 Bft)
27.05.2012 10:15 18,7 C 40 % 0,0 l/m 3,5 km/h (1 Bft) W-SW 247 5,2 C 20,5 C 3,4 km/h (1 Bft)
27.05.2012 10:20 19,1 C 38 % 0,0 l/m 3,2 km/h (1 Bft) S-SW 202 4,9 C 20,8 C 2,4 km/h (1 Bft)
27.05.2012 10:25 19,4 C 38 % 0,0 l/m 3,9 km/h (1 Bft) S-SW 202 5,3 C 21,6 C 6,4 km/h (2 Bft)
27.05.2012 10:30 19,6 C 38 % 0,0 l/m 4,5 km/h (1 Bft) S-SW 202 5,3 C 21,5 C 9,3 km/h (2 Bft)
27.05.2012 10:35 19,6 C 39 % 0,0 l/m 4,7 km/h (1 Bft) S-SO 157 5,6 C 21,6 C 4,3 km/h (1 Bft)
27.05.2012 10:40 19,9 C 38 % 0,0 l/m 4,3 km/h (1 Bft) W-SW 247 5,2 C 21,5 C 4,5 km/h (1 Bft)
27.05.2012 10:45 19,9 C 38 % 0,0 l/m 4,2 km/h (1 Bft) SW 225 5,4 C 21,5 C 5,3 km/h (1 Bft)
27.05.2012 10:50 19,9 C 39 % 0,0 l/m 4,2 km/h (1 Bft) W-NW 292 5,6 C 21,3 C 7,6 km/h (2 Bft)
27.05.2012 10:55 19,7 C 37 % 0,0 l/m 5,3 km/h (1 Bft) W-SW 247 4,6 C 21,2 C 6,9 km/h (2 Bft)
27.05.2012 11:00 19,5 C 36 % 0,0 l/m 5,6 km/h (1 Bft) W-NW 292 4,0 C 21,1 C 10,8 km/h (2 Bft)
27.05.2012 11:05 19,4 C 36 % 0,0 l/m 5,3 km/h (1 Bft) W-NW 292 3,9 C 20,9 C 5,6 km/h (1 Bft)
27.05.2012 11:10 19,8 C 39 % 0,0 l/m 4,3 km/h (1 Bft) N 360 5,4 C 21,1 C 4,8 km/h (1 Bft)
27.05.2012 11:15 19,2 C 37 % 0,0 l/m 4,2 km/h (1 Bft) N-NW 337 4,2 C 21,3 C 4,8 km/h (1 Bft)
27.05.2012 11:20 19,7 C 36 % 0,0 l/m 5,1 km/h (1 Bft) N-NO 22 4,2 C 21,2 C 3,9 km/h (1 Bft)
27.05.2012 11:25 19,9 C 36 % 0,0 l/m 5,0 km/h (1 Bft) NW 315 4,4 C 21,6 C 6,0 km/h (2 Bft)
27.05.2012 11:30 19,7 C 37 % 0,0 l/m 6,0 km/h (2 Bft) W-NW 292 4,6 C 21,3 C 8,5 km/h (2 Bft)
27.05.2012 11:35 19,5 C 36 % 0,0 l/m 6,3 km/h (2 Bft) N-NW 337 4,0 C 21,2 C 5,6 km/h (1 Bft)
27.05.2012 11:41 20,1 C 36 % 0,0 l/m 6,0 km/h (2 Bft) W-SW 247 4,6 C 21,0 C 12,4 km/h (3 Bft)
27.05.2012 11:45 19,4 C 35 % 0,0 l/m 6,4 km/h (2 Bft) N 360 3,5 C 21,0 C 7,1 km/h (2 Bft)
27.05.2012 11:50 19,7 C 35 % 0,0 l/m 7,1 km/h (2 Bft) W-NW 292 3,8 C 20,5 C 15,0 km/h (3 Bft)
27.05.2012 11:55 19,6 C 35 % 0,0 l/m 6,8 km/h (2 Bft) NW 315 3,7 C 20,7 C 6,9 km/h (2 Bft)
27.05.2012 12:00 20,4 C 36 % 0,0 l/m 6,0 km/h (2 Bft) W-SW 247 4,8 C 21,2 C 18,3 km/h (3 Bft)
27.05.2012 12:05 20,2 C 34 % 0,0 l/m 5,1 km/h (1 Bft) W-NW 292 3,8 C 21,7 C 9,7 km/h (2 Bft)
27.05.2012 12:10 20,0 C 35 % 0,0 l/m 4,8 km/h (1 Bft) S-SW 202 4,1 C 21,8 C 5,8 km/h (2 Bft)
27.05.2012 12:15 19,9 C 36 % 0,0 l/m 5,8 km/h (2 Bft) N 360 4,4 C 21,6 C 8,2 km/h (2 Bft)
27.05.2012 12:20 20,8 C 34 % 0,0 l/m 7,1 km/h (2 Bft) S-SW 202 4,4 C 21,2 C 10,8 km/h (2 Bft)
27.05.2012 12:25 20,2 C 36 % 0,0 l/m 7,6 km/h (2 Bft) W-NW 292 4,7 C 21,0 C 10,3 km/h (2 Bft)
27.05.2012 12:30 19,6 C 37 % 0,0 l/m 7,7 km/h (2 Bft) W 270 4,5 C 20,5 C 8,7 km/h (2 Bft)
27.05.2012 12:35 20,4 C 36 % 0,0 l/m 6,6 km/h (2 Bft) W-NW 292 4,8 C 21,0 C 6,1 km/h (2 Bft)
27.05.2012 12:40 21,4 C 35 % 0,0 l/m 5,5 km/h (1 Bft) W-SW 247 5,3 C 22,2 C 8,5 km/h (2 Bft)
27.05.2012 12:45 22,2 C 34 % 0,0 l/m 6,0 km/h (2 Bft) W-NW 292 5,6 C 22,9 C 8,9 km/h (2 Bft)
27.05.2012 12:50 20,8 C 33 % 0,0 l/m 5,8 km/h (2 Bft) W-NW 292 3,9 C 23,3 C 5,1 km/h (1 Bft)
27.05.2012 12:55 21,0 C 35 % 0,0 l/m 5,3 km/h (1 Bft) W 270 5,0 C 23,2 C 8,0 km/h (2 Bft)
27.05.2012 13:00 20,7 C 33 % 0,0 l/m 5,5 km/h (1 Bft) N 360 3,9 C 22,9 C 11,1 km/h (2 Bft)
27.05.2012 13:05 20,6 C 35 % 0,0 l/m 5,3 km/h (1 Bft) W-SW 247 4,6 C 22,9 C 5,3 km/h (1 Bft)
27.05.2012 13:10 20,5 C 33 % 0,0 l/m 5,1 km/h (1 Bft) W 270 3,7 C 22,8 C 2,9 km/h (1 Bft)
27.05.2012 13:15 20,6 C 35 % 0,0 l/m 5,5 km/h (1 Bft) W-SW 247 4,6 C 22,5 C 8,7 km/h (2 Bft)
27.05.2012 13:20 20,3 C 35 % 0,0 l/m 4,7 km/h (1 Bft) NW 315 4,3 C 22,4 C 5,6 km/h (1 Bft)
27.05.2012 13:25 20,7 C 35 % 0,0 l/m 4,2 km/h (1 Bft) S-SW 202 4,7 C 22,8 C 6,0 km/h (2 Bft)
27.05.2012 13:30 20,3 C 35 % 0,0 l/m 6,3 km/h (2 Bft) S-SW 202 4,3 C 22,1 C 8,2 km/h (2 Bft)
27.05.2012 13:35 20,9 C 36 % 0,0 l/m 6,6 km/h (2 Bft) SW 225 5,3 C 22,0 C 8,2 km/h (2 Bft)
27.05.2012 13:40 20,9 C 35 % 0,0 l/m 5,3 km/h (1 Bft) W 270 4,9 C 22,5 C 5,6 km/h (1 Bft)
27.05.2012 13:45 20,8 C 36 % 0,0 l/m 5,0 km/h (1 Bft) S 180 5,2 C 22,5 C 9,3 km/h (2 Bft)
27.05.2012 13:50 20,2 C 37 % 0,0 l/m 4,5 km/h (1 Bft) SO 135 5,0 C 22,2 C 3,2 km/h (1 Bft)
27.05.2012 13:55 19,7 C 37 % 0,0 l/m 3,9 km/h (1 Bft) N-NW 337 4,6 C 22,2 C 4,3 km/h (1 Bft)
27.05.2012 14:00 19,7 C 39 % 0,0 l/m 4,5 km/h (1 Bft) W-SW 247 5,4 C 21,3 C 4,8 km/h (1 Bft)
27.05.2012 14:05 19,8 C 39 % 0,0 l/m 4,5 km/h (1 Bft) N-NW 337 5,4 C 21,5 C 2,7 km/h (1 Bft)
27.05.2012 14:10 20,4 C 37 % 0,0 l/m 5,0 km/h (1 Bft) SW 225 5,2 C 22,2 C 15,1 km/h (3 Bft)
27.05.2012 14:15 21,0 C 36 % 0,0 l/m 7,1 km/h (2 Bft) W-SW 247 5,4 C 22,0 C 10,5 km/h (2 Bft)
27.05.2012 14:20 21,4 C 38 % 0,0 l/m 7,7 km/h (2 Bft) W 270 6,5 C 22,1 C 15,4 km/h (3 Bft)
27.05.2012 14:22 21,4 C 38 % 0,0 l/m 7,7 km/h (2 Bft) W 270 6,5 C 22,1 C 15,4 km/h (3 Bft)
27.05.2012 14:25 21,4 C 38 % 0,0 l/m 7,7 km/h (2 Bft) W 270 6,5 C 22,1 C 15,4 km/h (3 Bft)
27.05.2012 14:30 21,5 C 35 % 0,0 l/m 6,3 km/h (2 Bft) S-SW 202 5,4 C 23,0 C 0,0 km/h (0 Bft)
27.05.2012 14:35 21,9 C 35 % 0,0 l/m 6,1 km/h (2 Bft) W-SW 247 5,7 C 23,4 C 9,3 km/h (2 Bft)
27.05.2012 14:40 22,0 C 35 % 0,0 l/m 4,7 km/h (1 Bft) S 180 5,8 C 23,7 C 9,7 km/h (2 Bft)
27.05.2012 14:45 21,7 C 33 % 0,0 l/m 6,4 km/h (2 Bft) W-SW 247 4,7 C 23,6 C 9,2 km/h (2 Bft)
27.05.2012 14:50 21,7 C 32 % 0,0 l/m 7,9 km/h (2 Bft) W-NW 292 4,3 C 22,8 C 4,8 km/h (1 Bft)
27.05.2012 14:55 22,2 C 34 % 0,0 l/m 6,3 km/h (2 Bft) NW 315 5,6 C 23,7 C 7,9 km/h (2 Bft)
27.05.2012 15:00 22,1 C 31 % 0,0 l/m 3,7 km/h (1 Bft) NW 315 4,2 C 24,2 C 5,0 km/h (1 Bft)
27.05.2012 15:05 21,3 C 32 % 0,0 l/m 4,3 km/h (1 Bft) W-NW 292 3,9 C 24,4 C 5,8 km/h (2 Bft)
27.05.2012 15:10 20,0 C 32 % 0,0 l/m 6,3 km/h (2 Bft) N-NO 22 2,8 C 23,0 C 5,3 km/h (1 Bft)
27.05.2012 15:15 20,8 C 33 % 0,0 l/m 5,1 km/h (1 Bft) S 180 3,9 C 22,4 C 2,1 km/h (1 Bft)
27.05.2012 15:20 21,6 C 33 % 0,0 l/m 2,6 km/h (1 Bft) S-SW 202 4,6 C 24,2 C 4,8 km/h (1 Bft)
27.05.2012 15:25 20,7 C 32 % 0,0 l/m 3,4 km/h (1 Bft) W-SW 247 3,4 C 23,7 C 7,1 km/h (2 Bft)
27.05.2012 15:30 21,2 C 31 % 0,0 l/m 4,3 km/h (1 Bft) W-NW 292 3,4 C 24,0 C 2,3 km/h (1 Bft)
27.05.2012 15:35 21,4 C 33 % 0,0 l/m 4,7 km/h (1 Bft) S-SW 202 4,5 C 24,3 C 5,6 km/h (1 Bft)
27.05.2012 15:40 21,7 C 32 % 0,0 l/m 5,6 km/h (1 Bft) S-SW 202 4,3 C 23,7 C 7,6 km/h (2 Bft)
27.05.2012 15:45 21,0 C 32 % 0,0 l/m 6,9 km/h (2 Bft) W-SW 247 3,7 C 23,4 C 14,5 km/h (3 Bft)
27.05.2012 15:50 20,9 C 31 % 0,0 l/m 6,8 km/h (2 Bft) S-SO 157 3,1 C 22,8 C 11,6 km/h (2 Bft)
27.05.2012 15:55 22,0 C 32 % 0,0 l/m 4,8 km/h (1 Bft) W-SW 247 4,5 C 23,3 C 3,4 km/h (1 Bft)
27.05.2012 16:00 21,8 C 32 % 0,0 l/m 3,5 km/h (1 Bft) NW 315 4,4 C 24,7 C 4,8 km/h (1 Bft)
27.05.2012 16:05 21,2 C 32 % 0,0 l/m 4,0 km/h (1 Bft) S 180 3,8 C 24,4 C 5,6 km/h (1 Bft)
27.05.2012 16:10 21,4 C 31 % 0,0 l/m 6,9 km/h (2 Bft) W-SW 247 3,6 C 23,8 C 10,1 km/h (2 Bft)
27.05.2012 16:15 21,0 C 32 % 0,0 l/m 6,8 km/h (2 Bft) W-SW 247 3,7 C 23,2 C 4,2 km/h (1 Bft)
27.05.2012 16:20 20,5 C 32 % 0,0 l/m 7,4 km/h (2 Bft) N-NW 337 3,2 C 22,5 C 7,6 km/h (2 Bft)
27.05.2012 16:25 20,2 C 33 % 0,0 l/m 6,8 km/h (2 Bft) W 270 3,4 C 22,1 C 4,3 km/h (1 Bft)
27.05.2012 16:30 20,9 C 33 % 0,0 l/m 5,1 km/h (1 Bft) N-NW 337 4,0 C 22,5 C 8,5 km/h (2 Bft)
27.05.2012 16:35 21,1 C 32 % 0,0 l/m 4,2 km/h (1 Bft) W-SW 247 3,8 C 23,3 C 8,0 km/h (2 Bft)
27.05.2012 16:40 20,7 C 35 % 0,0 l/m 5,6 km/h (1 Bft) SW 225 4,7 C 23,8 C 10,9 km/h (2 Bft)
27.05.2012 16:45 20,3 C 35 % 0,0 l/m 6,4 km/h (2 Bft) W-NW 292 4,3 C 23,4 C 9,8 km/h (2 Bft)
27.05.2012 16:50 20,6 C 35 % 0,0 l/m 6,1 km/h (2 Bft) W-SW 247 4,6 C 23,5 C 9,0 km/h (2 Bft)
27.05.2012 16:55 20,2 C 35 % 0,0 l/m 6,4 km/h (2 Bft) NW 315 4,2 C 23,8 C 6,4 km/h (2 Bft)
27.05.2012 17:00 19,1 C 36 % 0,0 l/m 6,6 km/h (2 Bft) S-SW 202 3,7 C 23,1 C 9,0 km/h (2 Bft)
27.05.2012 17:05 19,2 C 37 % 0,0 l/m 6,0 km/h (2 Bft) W 270 4,2 C 22,2 C 7,9 km/h (2 Bft)
27.05.2012 17:10 19,3 C 38 % 0,0 l/m 4,8 km/h (1 Bft) N 360 4,6 C 23,0 C 3,5 km/h (1 Bft)
27.05.2012 17:15 19,4 C 38 % 0,0 l/m 4,0 km/h (1 Bft) W-SW 247 4,7 C 23,8 C 2,4 km/h (1 Bft)
27.05.2012 17:20 19,3 C 38 % 0,0 l/m 4,8 km/h (1 Bft) W-SW 247 4,6 C 24,2 C 13,8 km/h (3 Bft)
27.05.2012 17:25 19,2 C 38 % 0,0 l/m 6,0 km/h (2 Bft) S-SO 157 4,5 C 23,5 C 8,4 km/h (2 Bft)
27.05.2012 17:30 19,2 C 39 % 0,0 l/m 6,0 km/h (2 Bft) S-SO 157 4,9 C 23,5 C 14,3 km/h (3 Bft)
27.05.2012 17:35 19,3 C 38 % 0,0 l/m 6,0 km/h (2 Bft) W-SW 247 4,6 C 23,7 C 6,4 km/h (2 Bft)
27.05.2012 17:40 19,3 C 38 % 0,0 l/m 7,4 km/h (2 Bft) S 180 4,6 C 22,9 C 5,6 km/h (1 Bft)
27.05.2012 17:45 19,2 C 38 % 0,0 l/m 7,1 km/h (2 Bft) S 180 4,5 C 23,1 C 9,2 km/h (2 Bft)
27.05.2012 17:50 19,1 C 37 % 0,0 l/m 6,0 km/h (2 Bft) W 270 4,1 C 23,2 C 8,0 km/h (2 Bft)
27.05.2012 17:55 19,1 C 37 % 0,0 l/m 6,1 km/h (2 Bft) S 180 4,1 C 23,2 C 6,0 km/h (2 Bft)
27.05.2012 18:00 19,0 C 37 % 0,0 l/m 5,6 km/h (1 Bft) NW 315 4,0 C 23,3 C 6,1 km/h (2 Bft)
27.05.2012 18:05 18,8 C 37 % 0,0 l/m 4,7 km/h (1 Bft) N-NW 337 3,8 C 23,2 C 2,4 km/h (1 Bft)
27.05.2012 18:10 19,0 C 38 % 0,0 l/m 4,5 km/h (1 Bft) W-SW 247 4,4 C 23,3 C 6,8 km/h (2 Bft)
27.05.2012 18:15 19,1 C 36 % 0,0 l/m 4,7 km/h (1 Bft) W-SW 247 3,7 C 23,4 C 5,5 km/h (1 Bft)
27.05.2012 18:20 19,1 C 38 % 0,0 l/m 4,0 km/h (1 Bft) S 180 4,4 C 23,9 C 10,1 km/h (2 Bft)
27.05.2012 18:25 19,1 C 38 % 0,0 l/m 4,2 km/h (1 Bft) S-SW 202 4,4 C 23,8 C 5,3 km/h (1 Bft)
27.05.2012 18:30 19,1 C 38 % 0,0 l/m 5,6 km/h (1 Bft) S-SW 202 4,4 C 23,5 C 9,5 km/h (2 Bft)
27.05.2012 18:35 18,9 C 38 % 0,0 l/m 5,8 km/h (2 Bft) SO 135 4,3 C 23,1 C 8,9 km/h (2 Bft)
27.05.2012 18:40 18,6 C 38 % 0,0 l/m 6,6 km/h (2 Bft) S-SW 202 4,0 C 22,5 C 6,3 km/h (2 Bft)
27.05.2012 18:45 18,2 C 40 % 0,0 l/m 5,8 km/h (2 Bft) W-SW 247 4,4 C 21,7 C 4,2 km/h (1 Bft)
27.05.2012 18:50 18,5 C 39 % 0,0 l/m 4,8 km/h (1 Bft) N-NW 337 4,3 C 21,6 C 3,9 km/h (1 Bft)
27.05.2012 18:55 18,5 C 39 % 0,0 l/m 4,7 km/h (1 Bft) S-SW 202 4,3 C 22,0 C 7,4 km/h (2 Bft)
27.05.2012 19:00 18,2 C 40 % 0,0 l/m 5,3 km/h (1 Bft) W 270 4,4 C 22,0 C 10,9 km/h (2 Bft)
27.05.2012 19:05 18,2 C 40 % 0,0 l/m 6,4 km/h (2 Bft) W-SW 247 4,4 C 21,6 C 11,3 km/h (2 Bft)
27.05.2012 19:10 17,7 C 41 % 0,0 l/m 5,5 km/h (1 Bft) SW 225 4,3 C 20,9 C 5,6 km/h (1 Bft)
27.05.2012 19:15 17,5 C 40 % 0,0 l/m 4,7 km/h (1 Bft) W 270 3,8 C 20,2 C 6,0 km/h (2 Bft)
27.05.2012 19:20 17,5 C 42 % 0,0 l/m 4,3 km/h (1 Bft) W-SW 247 4,4 C 19,1 C 4,3 km/h (1 Bft)
27.05.2012 19:25 17,5 C 41 % 0,0 l/m 4,7 km/h (1 Bft) S-SW 202 4,1 C 19,0 C 6,3 km/h (2 Bft)
27.05.2012 19:30 17,5 C 43 % 0,0 l/m 4,2 km/h (1 Bft) W-SW 247 4,8 C 19,2 C 3,7 km/h (1 Bft)
27.05.2012 19:35 17,4 C 43 % 0,0 l/m 3,7 km/h (1 Bft) N-NO 22 4,7 C 19,3 C 6,8 km/h (2 Bft)
27.05.2012 19:40 17,3 C 43 % 0,0 l/m 3,1 km/h (1 Bft) N-NO 22 4,6 C 18,9 C 4,3 km/h (1 Bft)
27.05.2012 19:45 17,4 C 42 % 0,0 l/m 3,1 km/h (1 Bft) W-NW 292 4,4 C 19,1 C 6,1 km/h (2 Bft)
27.05.2012 19:50 17,6 C 43 % 0,0 l/m 3,9 km/h (1 Bft) W-NW 292 4,9 C 19,8 C 3,4 km/h (1 Bft)
27.05.2012 19:55 17,6 C 43 % 0,0 l/m 3,2 km/h (1 Bft) W 270 4,9 C 20,3 C 6,9 km/h (2 Bft)
27.05.2012 20:00 17,7 C 43 % 0,0 l/m 2,9 km/h (1 Bft) O 90 5,0 C 20,4 C 0,0 km/h (0 Bft)
27.05.2012 20:05 17,7 C 43 % 0,0 l/m 3,1 km/h (1 Bft) W-NW 292 5,0 C 20,5 C 4,8 km/h (1 Bft)
27.05.2012 20:10 17,6 C 43 % 0,0 l/m 2,4 km/h (1 Bft) W-SW 247 4,9 C 20,5 C 4,7 km/h (1 Bft)
27.05.2012 20:15 17,4 C 42 % 0,0 l/m 3,5 km/h (1 Bft) NW 315 4,4 C 20,3 C 6,1 km/h (2 Bft)
27.05.2012 20:20 17,1 C 42 % 0,0 l/m 5,0 km/h (1 Bft) W-NW 292 4,1 C 19,0 C 4,8 km/h (1 Bft)
27.05.2012 20:25 17,1 C 43 % 0,0 l/m 5,1 km/h (1 Bft) N-NW 337 4,4 C 18,6 C 6,6 km/h (2 Bft)
27.05.2012 20:30 17,0 C 42 % 0,0 l/m 4,8 km/h (1 Bft) NW 315 4,0 C 18,5 C 4,8 km/h (1 Bft)
27.05.2012 20:35 16,8 C 43 % 0,0 l/m 4,5 km/h (1 Bft) N-NW 337 4,2 C 18,5 C 6,8 km/h (2 Bft)
27.05.2012 20:40 16,6 C 44 % 0,0 l/m 3,9 km/h (1 Bft) W-SW 247 4,3 C 18,0 C 3,1 km/h (1 Bft)
27.05.2012 20:45 16,4 C 45 % 0,0 l/m 3,7 km/h (1 Bft) W 270 4,4 C 17,6 C 6,1 km/h (2 Bft)
27.05.2012 20:50 16,3 C 45 % 0,0 l/m 3,7 km/h (1 Bft) W-NW 292 4,3 C 17,1 C 3,1 km/h (1 Bft)
27.05.2012 20:55 16,2 C 45 % 0,0 l/m 4,2 km/h (1 Bft) W-NW 292 4,3 C 16,9 C 5,0 km/h (1 Bft)
27.05.2012 21:00 16,0 C 46 % 0,0 l/m 3,9 km/h (1 Bft) W-NW 292 4,4 C 16,5 C 6,9 km/h (2 Bft)
27.05.2012 21:05 16,0 C 46 % 0,0 l/m 4,0 km/h (1 Bft) W-SW 247 4,4 C 16,3 C 3,1 km/h (1 Bft)
27.05.2012 21:10 15,7 C 47 % 0,0 l/m 3,9 km/h (1 Bft) W-NW 292 4,4 C 16,1 C 9,2 km/h (2 Bft)
27.05.2012 21:15 15,6 C 48 % 0,0 l/m 3,7 km/h (1 Bft) W-NW 292 4,6 C 15,9 C 3,7 km/h (1 Bft)
27.05.2012 21:20 15,3 C 48 % 0,0 l/m 2,7 km/h (1 Bft) S-SW 202 4,4 C 15,7 C 1,9 km/h (1 Bft)
27.05.2012 21:25 15,3 C 48 % 0,0 l/m 2,4 km/h (1 Bft) N-NO 22 4,4 C 15,6 C 6,0 km/h (2 Bft)
27.05.2012 21:30 15,1 C 49 % 0,0 l/m 2,4 km/h (1 Bft) W-SW 247 4,5 C 15,4 C 1,8 km/h (1 Bft)
27.05.2012 21:35 14,8 C 49 % 0,0 l/m 2,3 km/h (1 Bft) S-SO 157 4,2 C 15,3 C 2,4 km/h (1 Bft)
27.05.2012 21:40 14,5 C 51 % 0,0 l/m 2,3 km/h (1 Bft) O-SO 112 4,5 C 15,0 C 3,9 km/h (1 Bft)
27.05.2012 21:45 14,4 C 53 % 0,0 l/m 2,4 km/h (1 Bft) O-SO 112 4,9 C 14,9 C 3,1 km/h (1 Bft)
27.05.2012 21:50 14,2 C 54 % 0,0 l/m 2,6 km/h (1 Bft) S-SO 157 5,0 C 14,7 C 2,9 km/h (1 Bft)
27.05.2012 21:55 14,1 C 54 % 0,0 l/m 2,4 km/h (1 Bft) O-SO 112 4,9 C 14,6 C 3,1 km/h (1 Bft)
27.05.2012 22:00 14,0 C 56 % 0,0 l/m 2,9 km/h (1 Bft) S 180 5,4 C 14,5 C 3,5 km/h (1 Bft)
27.05.2012 22:05 13,9 C 57 % 0,0 l/m 3,1 km/h (1 Bft) SO 135 5,5 C 14,5 C 4,2 km/h (1 Bft)
27.05.2012 22:10 13,7 C 58 % 0,0 l/m 2,6 km/h (1 Bft) SO 135 5,6 C 14,3 C 2,9 km/h (1 Bft)
27.05.2012 22:15 13,6 C 58 % 0,0 l/m 3,1 km/h (1 Bft) S-SO 157 5,5 C 14,2 C 4,2 km/h (1 Bft)
27.05.2012 22:20 13,5 C 58 % 0,0 l/m 2,3 km/h (1 Bft) N-NO 22 5,4 C 14,1 C 0,0 km/h (0 Bft)
27.05.2012 22:25 13,4 C 58 % 0,0 l/m 0,6 km/h (0 Bft) SO 135 5,3 C 13,8 C 0,0 km/h (0 Bft)
27.05.2012 22:30 13,1 C 59 % 0,0 l/m 0,0 km/h (0 Bft) N 360 5,3 C 13,5 C 0,0 km/h (0 Bft)
27.05.2012 22:35 13,0 C 59 % 0,0 l/m 0,0 km/h (0 Bft) SO 135 5,2 C 13,3 C 0,0 km/h (0 Bft)
27.05.2012 22:40 12,9 C 59 % 0,0 l/m 0,2 km/h (0 Bft) NO 45 5,1 C 13,1 C 0,0 km/h (0 Bft)
27.05.2012 22:45 12,9 C 63 % 0,0 l/m 0,2 km/h (0 Bft) O-SO 112 6,0 C 13,0 C 0,0 km/h (0 Bft)
27.05.2012 22:50 12,8 C 62 % 0,0 l/m 0,0 km/h (0 Bft) NO 45 5,7 C 12,8 C 0,0 km/h (0 Bft)
27.05.2012 22:55 12,7 C 62 % 0,0 l/m 0,0 km/h (0 Bft) N-NO 22 5,6 C 12,6 C 0,0 km/h (0 Bft)
27.05.2012 23:00 12,5 C 62 % 0,0 l/m 0,0 km/h (0 Bft) O 90 5,4 C 12,5 C 0,0 km/h (0 Bft)
27.05.2012 23:05 12,4 C 62 % 0,0 l/m 0,0 km/h (0 Bft) O 90 5,3 C 12,4 C 0,0 km/h (0 Bft)
27.05.2012 23:10 12,5 C 63 % 0,0 l/m 0,0 km/h (0 Bft) NO 45 5,7 C 12,3 C 0,0 km/h (0 Bft)
27.05.2012 23:15 12,4 C 64 % 0,0 l/m 0,0 km/h (0 Bft) N-NO 22 5,8 C 12,2 C 0,0 km/h (0 Bft)
27.05.2012 23:20 12,1 C 65 % 0,0 l/m 0,0 km/h (0 Bft) N-NO 22 5,7 C 12,1 C 0,0 km/h (0 Bft)
27.05.2012 23:25 12,2 C 65 % 0,0 l/m 0,3 km/h (0 Bft) NO 45 5,8 C 12,0 C 2,1 km/h (1 Bft)
27.05.2012 23:30 11,9 C 66 % 0,0 l/m 0,3 km/h (0 Bft) NO 45 5,8 C 11,9 C 0,0 km/h (0 Bft)
27.05.2012 23:35 11,9 C 67 % 0,0 l/m 0,2 km/h (0 Bft) N 360 6,0 C 11,8 C 0,0 km/h (0 Bft)
27.05.2012 23:40 11,8 C 66 % 0,0 l/m 0,0 km/h (0 Bft) N-NW 337 5,7 C 11,7 C 0,0 km/h (0 Bft)
27.05.2012 23:45 11,7 C 68 % 0,0 l/m 0,0 km/h (0 Bft) N 360 6,0 C 11,6 C 0,0 km/h (0 Bft)
27.05.2012 23:50 11,4 C 67 % 0,0 l/m 0,0 km/h (0 Bft) N-NO 22 5,5 C 11,3 C 0,0 km/h (0 Bft)
27.05.2012 23:55 11,3 C 67 % 0,0 l/m 0,0 km/h (0 Bft) N-NO 22 5,4 C 11,1 C 0,0 km/h (0 Bft)
_ Min-Zeit 05:31 16:10 - 23:55 - - 05:31 05:35 23:55
Minimum _ 2,2 C 31 % - 0,0 km/h (0 Bft) - - -0,1 C 1,3 C 0,0 km/h (0 Bft)
_ Max-Zeit 14:55 05:45 23:55 14:50 - - 09:00 16:00 12:00
Maximum _ 22,2 C 87 % 0,0 l/m 7,9 km/h
W-NW (2 Bft)
- - 7,9 C 24,7 C 18,3 km/h
W-SW (3 Bft)
Durchschnitt _ 13,2 C 56 % #0,0 l/m 2,6 km/h (1 Bft) W-SW - 3,6 C 14,3 C 3,6 km/h (1 Bft)